User: anonymous   Login
Location: State Camp
(41.2367°N, 77.7828°W)
Time: 09:20:50
(UTC-04:00)
Language:

Lacrosse 5 - Orbit

View from above orbital plane
View from above orbital plane
View from above satellite
View from above satellite

Ground track
Ground track

The orbit data is extracted from the following two-line orbital elements,

1 28646U 05016A   15206.98696889 0.00000000  00000-0  00000-0 0    08
2 28646  57.0110 189.4080 0006000  61.6043 298.3957 14.52100732    06
Epoch (UTC): 25 July 2015 23:41:14
Eccentricity: 0.0006000
inclination: 57.0110°
perigee height: 714 km
apogee height: 723 km
right ascension of ascending node: 189.4080°
argument of perigee: 61.6043°
revolutions per day: 14.52100732
mean anomaly at epoch: 298.3957°
orbit number at epoch: 0

The dashed part of the orbit path shows where the satellite is in the earth's shadow,  

DLR